Tracking 29606 objects as of 19-Sep-2024
HD Live streaming from Space Station
objects crossing your sky now

STARLINK-32275

Track STARLINK-32275 now!
10-day predictions
STARLINK-32275 is classified as:


NORAD ID: 60360
Int'l Code: 2024-138F
Perigee: 453.6 km
Apogee: 455.4 km
Inclination: 53.2 °
Period: 93.5 minutes
Semi major axis: 6825 km
RCS: Unknown
Launch date: August 4, 2024
Source: United States (US)
Launch site: AIR FORCE WESTERN TEST RANGE (AFWTR)
Your satellite tracking list
Your tracking list is empty




NASA's NSSDC Master Catalog

Two Line Element Set (TLE):
1 60360U 24138F   24262.55291823 -.00005383  00000-0 -12488-3 0  9991
2 60360  53.1606 291.3638 0001329  79.4795 280.6359 15.39575548  8290
Source of the keplerian elements: AFSPC